Stations météo

réclame
Mon MeteoGroup
Groningen Eelde, Pays-Bas (6280): Température de l'air & dewpoint: 19.03.2019 11:00:00 - 25.03.2019 11:00:00 (CET)Groningen Eelde, Pays-Bas (6280): Température de l'air 5cm: 19.03.2019 11:00:00 - 25.03.2019 11:00:00 (CET)Groningen Eelde, Pays-Bas (6280): Vitesse du vent & gusts: 19.03.2019 11:00:00 - 25.03.2019 11:00:00 (CET)Groningen Eelde, Pays-Bas (6280): Direction du vent: 19.03.2019 11:00:00 - 25.03.2019 11:00:00 (CET)Groningen Eelde, Pays-Bas (6280): reduced air pressure: 19.03.2019 11:00:00 - 25.03.2019 11:00:00 (CET)Groningen Eelde, Pays-Bas (6280): visibility: 19.03.2019 11:00:00 - 25.03.2019 11:00:00 (CET)Groningen Eelde, Pays-Bas (6280): Quantités de précipitations: 19.03.2019 11:00:00 - 25.03.2019 11:00:00 (CET)
Date & Time tt [°C] td [°C] tt 5cm [°C] ff [km/h] ff [knt] fx [km/h] fx [knt] dd ppp [hPa] vv [km] rr [mm]
25.03.2019 11:00:00 8,0 3,6 7,3 31 17 54 29 NW 1019,8 10 0,0
25.03.2019 10:00:00 7,4 2,8 7,3 41 22 61 33 NNW 1019,0 10 0,0
25.03.2019 09:00:00 6,1 3,1 6,0 29 16 50 27 NW 1017,8 10 0,5
25.03.2019 08:00:00 5,4 3,6 4,7 24 13 47 25 WNW 1016,2 5 0,2
25.03.2019 07:00:00 4,6 2,5 3,5 24 13 68 37 WNW 1016,0 10 0,8
25.03.2019 06:00:00 5,7 2,5 4,9 21 11 40 21 W 1016,1 10 0,0
25.03.2019 05:00:00 4,5 1,9 2,9 16 9 25 14 W 1016,5 10 0,0
25.03.2019 04:00:00 3,3 1,7 1,9 15 8 22 12 W 1017,0 10 0,0
25.03.2019 03:00:00 3,4 2,1 2,3 13 7 29 16 WNW 1017,6 10 0,1
25.03.2019 02:00:00 3,8 2,6 3,5 29 16 65 35 NW 1018,2 10 2,8
25.03.2019 01:00:00 6,3 3,8 5,5 22 12 40 21 WSW 1017,6 10 0,5
25.03.2019 00:00:00 5,8 2,6 5,0 26 14 40 21 WSW 1019,1 10 0,0
24.03.2019 23:00:00 4,5 1,8 3,8 21 11 29 16 SW 1020,7 10 0,0
24.03.2019 22:00:00 3,1 1,5 1,2 15 8 22 12 SW 1021,9 10 0,0
24.03.2019 21:00:00 4,1 1,7 2,4 15 8 18 10 WSW 1022,9 10 0,0
24.03.2019 20:00:00 5,2 1,6 3,7 15 8 29 16 W 1023,7 10 0,0
24.03.2019 19:00:00 6,9 2,0 6,0 21 11 36 19 W 1023,6 10 0,0
24.03.2019 18:00:00 7,9 1,7 7,1 18 10 29 16 W 1024,3 10 0,0
24.03.2019 17:00:00 9,2 1,3 8,0 16 9 29 16 W 1024,9 10 0,0
24.03.2019 16:00:00 9,3 0,0 8,4 16 9 29 16 WNW 1025,3 10 0,0
24.03.2019 15:00:00 9,2 1,3 9,3 18 10 29 16 WNW 1025,9 10 0,0
24.03.2019 14:00:00 9,0 1,9 9,3 13 7 25 14 WNW 1026,5 10 0,0
24.03.2019 13:00:00 10,1 2,4 11,4 15 8 25 14 W 1027,4 10 0,0
24.03.2019 12:00:00 7,9 2,4 8,3 16 9 25 14 W 1028,2 10 0,0
24.03.2019 11:00:00 7,9 3,8 8,9 8 4 18 10 W 1028,6 10 0,0
24.03.2019 10:00:00 6,5 4,0 7,0 5 3 7 4 S 1028,7 10 0,0
24.03.2019 09:00:00 5,5 4,4 5,7 4 2 4 2 - 1029,2 10 0,0
24.03.2019 08:00:00 3,9 3,5 3,6 2 1 4 2 - 1029,3 8 0,0
24.03.2019 07:00:00 2,4 2,1 0,6 4 2 4 2 WSW 1029,2 6 0,0
24.03.2019 06:00:00 2,3 1,9 0,7 2 1 4 2 SW 1029,7 7 0,0
24.03.2019 05:00:00 2,4 1,8 1,3 4 2 4 2 WNW 1030,1 8 0,0
24.03.2019 04:00:00 3,1 2,7 1,3 2 1 7 4 W 1030,3 9 0,0
24.03.2019 03:00:00 3,1 2,4 1,7 2 1 4 2 W 1031,1 9 0,0
24.03.2019 02:00:00 2,8 2,2 1,9 2 1 4 2 W 1031,4 10 0,0
24.03.2019 01:00:00 3,3 2,7 1,3 5 3 7 4 NW 1031,9 10 0,0
24.03.2019 00:00:00 1,9 1,2 0,1 4 2 4 2 - 1032,0 10 0,0
23.03.2019 23:00:00 2,7 2,2 -0,5 4 2 4 2 NNW 1032,0 10 0,0
23.03.2019 22:00:00 3,4 2,2 0,3 4 2 7 4 NW 1032,6 10 0,0
23.03.2019 21:00:00 4,4 2,4 1,7 5 3 11 6 N 1032,6 10 0,0
23.03.2019 20:00:00 5,8 2,8 4,1 9 5 14 8 N 1032,4 10 0,0
23.03.2019 19:00:00 6,1 2,7 4,6 11 6 22 12 N 1032,0 10 0,0
23.03.2019 18:00:00 8,0 3,1 7,2 13 7 25 14 N 1031,7 10 0,0
23.03.2019 17:00:00 9,3 3,7 8,9 15 8 25 14 NNW 1031,6 10 0,0
23.03.2019 16:00:00 9,3 4,0 9,7 16 9 29 16 NNW 1031,4 10 0,0
23.03.2019 15:00:00 10,7 4,6 11,9 21 11 32 18 N 1031,1 10 0,0
23.03.2019 14:00:00 10,6 5,9 11,0 15 8 22 12 NNW 1030,9 10 0,0
23.03.2019 13:00:00 9,2 7,1 9,7 15 8 22 12 N 1030,7 10 0,0
23.03.2019 12:00:00 8,6 7,8 8,8 15 8 25 14 NW 1030,0 2,3 0,0
23.03.2019 11:00:00 9,6 8,1 9,8 13 7 22 12 WNW 1029,4 5 0,0
23.03.2019 10:00:00 8,9 7,9 8,9 9 5 14 8 W 1028,7 3,4 0,0
23.03.2019 09:00:00 8,1 7,4 7,9 11 6 18 10 W 1028,7 2,7 0,0
23.03.2019 08:00:00 7,7 7,0 7,4 11 6 14 8 WSW 1027,9 2,4 0,0
23.03.2019 07:00:00 6,8 6,3 6,4 9 5 14 8 WSW 1027,6 1,9 0,0
23.03.2019 06:00:00 5,7 5,5 4,7 9 5 11 6 SW 1027,3 2,0 0,0
23.03.2019 05:00:00 2,9 2,7 -0,1 8 4 11 6 SW 1027,0 1,3 0,0
23.03.2019 04:00:00 2,8 2,6 -0,5 9 5 11 6 SSW 1026,9 1,6 0,0
23.03.2019 03:00:00 3,2 2,8 -0,3 8 4 7 4 SW 1026,8 1,3 0,0
23.03.2019 02:00:00 3,2 2,7 0,3 8 4 11 6 SSW 1026,7 2,3 0,0
23.03.2019 01:00:00 5,9 5,1 5,0 5 3 22 12 W 1027,0 2,5 0,0
23.03.2019 00:00:00 5,9 5,5 5,7 18 10 29 16 WNW 1027,5 1,9 0,0
22.03.2019 23:00:00 7,5 7,3 7,4 16 9 25 14 NW 1027,1 0,3 0,0
22.03.2019 22:00:00 6,4 5,8 5,4 13 7 22 12 NW 1027,0 0,3 0,0
22.03.2019 21:00:00 8,5 5,6 2,8 5 3 11 6 W 1026,5 8 0,0
22.03.2019 20:00:00 9,3 5,3 3,8 8 4 7 4 W 1026,4 10 0,0
22.03.2019 19:00:00 12,5 4,3 6,9 9 5 11 6 WSW 1026,2 10 0,0
22.03.2019 18:00:00 15,9 6,6 14,1 13 7 18 10 SSW 1025,9 10 0,0
22.03.2019 17:00:00 17,5 6,9 16,5 13 7 29 16 SSW 1026,1 10 0,0
22.03.2019 16:00:00 17,6 6,7 17,9 16 9 25 14 S 1026,8 10 0,0
22.03.2019 15:00:00 17,6 8,2 18,4 18 10 25 14 SSW 1027,6 10 0,0
22.03.2019 14:00:00 16,5 9,0 18,4 13 7 25 14 S 1028,4 8 0,0
22.03.2019 13:00:00 15,0 8,7 17,1 15 8 25 14 S 1029,3 6 0,0
22.03.2019 12:00:00 12,4 9,2 15,4 9 5 18 10 SSE 1030,0 4,4 0,0
22.03.2019 11:00:00 10,2 8,6 11,5 13 7 18 10 SSE 1030,9 2,9 0,0
22.03.2019 10:00:00 8,5 8,0 9,3 9 5 14 8 SE 1031,5 1,2 0,0
22.03.2019 09:00:00 8,2 7,9 8,6 8 4 14 8 SE 1032,1 0,8 0,0
22.03.2019 08:00:00 8,1 7,8 8,2 11 6 14 8 SSE 1032,0 0,9 0,0
22.03.2019 07:00:00 8,2 7,8 8,1 8 4 11 6 SSE 1031,8 1,0 0,0
22.03.2019 06:00:00 8,2 7,6 7,9 4 2 14 8 - 1031,9 1,9 0,0
22.03.2019 05:00:00 8,1 7,5 7,8 5 3 14 8 SSE 1031,9 2,5 0,0
22.03.2019 04:00:00 7,9 7,1 7,7 5 3 11 6 SSE 1032,0 2,6 0,0
22.03.2019 03:00:00 7,9 6,7 7,4 4 2 7 4 - 1032,6 4,4 0,0
22.03.2019 02:00:00 7,9 6,4 7,4 2 1 11 6 - 1033,1 5 0,0
22.03.2019 01:00:00 7,8 6,6 7,3 2 1 7 4 SE 1033,0 6 0,0
22.03.2019 00:00:00 7,8 6,4 7,3 0 0 4 2 N 1033,4 6 0,0
21.03.2019 23:00:00 7,9 6,6 7,5 5 3 11 6 WNW 1033,4 7 0,0
21.03.2019 22:00:00 8,1 6,6 7,7 4 2 7 4 WNW 1033,8 9 0,0
21.03.2019 21:00:00 8,2 6,6 7,8 5 3 11 6 W 1033,8 10 0,0
21.03.2019 20:00:00 8,6 6,7 8,2 8 4 18 10 W 1033,7 10 0,0
21.03.2019 19:00:00 8,9 7,2 8,5 9 5 14 8 W 1033,5 10 0,0
21.03.2019 18:00:00 9,2 7,7 9,0 9 5 18 10 W 1033,5 8 0,0
21.03.2019 17:00:00 9,4 7,6 9,3 15 8 29 16 WSW 1033,6 10 0,0
21.03.2019 16:00:00 9,6 7,7 9,6 16 9 29 16 WSW 1033,4 10 0,0
21.03.2019 15:00:00 9,7 7,7 9,8 21 11 29 16 WSW 1033,7 9 0,0
21.03.2019 14:00:00 9,9 7,6 10,2 21 11 32 18 SW 1033,9 9 0,0
21.03.2019 13:00:00 10,7 7,6 11,0 24 13 32 18 SW 1033,8 9 0,0
21.03.2019 12:00:00 10,8 7,7 10,8 22 12 40 21 WSW 1033,9 10 0,0
21.03.2019 11:00:00 10,1 7,5 10,1 18 10 32 18 WSW 1033,9 10 0,0
21.03.2019 10:00:00 9,8 7,9 9,8 24 13 32 18 SW 1033,9 9 0,0
21.03.2019 09:00:00 9,3 7,8 9,0 21 11 32 18 SW 1033,5 6 0,0
21.03.2019 08:00:00 8,6 7,7 8,3 16 9 25 14 SSW 1033,4 4,0 0,0
21.03.2019 07:00:00 7,3 6,7 6,3 13 7 18 10 S 1032,7 2,5 0,0
21.03.2019 06:00:00 7,4 6,6 6,6 13 7 18 10 SSW 1032,5 4,5 0,0
21.03.2019 05:00:00 9,0 7,8 8,6 11 6 25 14 WSW 1032,7 8 0,0
21.03.2019 04:00:00 8,9 7,8 8,4 13 7 22 12 WSW 1032,8 6 0,0
21.03.2019 03:00:00 8,4 7,9 8,1 13 7 25 14 WSW 1033,0 3,2 0,0
21.03.2019 02:00:00 8,3 7,5 7,9 15 8 25 14 WSW 1033,5 4,1 0,0
21.03.2019 01:00:00 8,0 7,5 7,7 18 10 25 14 WSW 1033,5 2,7 0,0
21.03.2019 00:00:00 7,8 7,3 7,5 18 10 29 16 WSW 1033,5 2,6 0,0
20.03.2019 23:00:00 7,5 6,9 5,3 15 8 29 16 WSW 1033,6 4,1 0,0
20.03.2019 22:00:00 7,3 6,6 6,0 13 7 18 10 WSW 1033,3 5 0,0
20.03.2019 21:00:00 5,7 5,3 3,7 9 5 14 8 SW 1033,1 5 0,0
20.03.2019 20:00:00 6,8 5,9 4,8 8 4 14 8 SSW 1032,9 7 0,0
20.03.2019 19:00:00 10,2 8,4 9,7 13 7 22 12 SW 1032,5 9 0,0
20.03.2019 18:00:00 10,8 8,6 10,5 15 8 25 14 WSW 1032,1 9 0,0
20.03.2019 17:00:00 10,9 8,7 10,7 15 8 22 12 WSW 1032,1 8 0,0
20.03.2019 16:00:00 10,4 8,9 10,2 15 8 25 14 WSW 1032,2 6 0,0
20.03.2019 15:00:00 10,1 8,7 10,1 15 8 29 16 WSW 1032,1 6 0,0
20.03.2019 14:00:00 10,0 8,7 10,1 18 10 29 16 WSW 1032,0 3,7 0,0
20.03.2019 13:00:00 10,3 8,5 10,1 16 9 25 14 WSW 1032,0 6 0,0
20.03.2019 12:00:00 9,8 8,4 9,7 21 11 25 14 SW 1031,7 4,9 0,0
20.03.2019 11:00:00 9,6 8,0 9,5 22 12 29 16 SW 1031,3 5 0,0
20.03.2019 10:00:00 8,8 7,6 8,9 16 9 25 14 SW 1030,8 4,9 0,0
20.03.2019 09:00:00 8,2 6,9 8,0 18 10 25 14 SW 1030,3 5 0,0
20.03.2019 08:00:00 7,3 5,8 6,8 15 8 25 14 SW 1030,1 5 0,0
20.03.2019 07:00:00 6,1 4,4 5,7 15 8 25 14 SSW 1029,8 6 0,0
20.03.2019 06:00:00 5,9 4,2 5,4 15 8 22 12 SSW 1029,5 6 0,0
20.03.2019 05:00:00 5,7 4,0 5,0 15 8 22 12 SSW 1029,3 7 0,0
20.03.2019 04:00:00 4,8 3,1 3,6 9 5 18 10 SSW 1029,3 8 0,0
20.03.2019 03:00:00 3,4 1,9 1,7 11 6 18 10 SSW 1029,6 9 0,0
20.03.2019 02:00:00 3,9 2,1 1,6 11 6 14 8 SSW 1029,7 10 0,0
20.03.2019 01:00:00 3,8 1,8 0,2 11 6 14 8 SW 1029,8 10 0,0
20.03.2019 00:00:00 4,4 2,0 1,6 8 4 14 8 SSW 1029,7 10 0,0
19.03.2019 23:00:00 5,7 3,1 2,9 5 3 11 6 S 1029,6 10 0,0
19.03.2019 22:00:00 5,4 2,4 0,9 8 4 11 6 S 1029,6 10 0,0
19.03.2019 21:00:00 5,0 2,1 1,1 5 3 11 6 SSW 1029,8 10 0,0
19.03.2019 20:00:00 5,0 1,8 0,1 5 3 7 4 SSW 1029,0 10 0,0
19.03.2019 19:00:00 6,6 2,0 1,7 8 4 11 6 SW 1028,6 10 0,0
19.03.2019 18:00:00 8,6 2,4 7,8 9 5 18 10 W 1028,2 10 0,0
19.03.2019 17:00:00 10,5 3,2 10,8 11 6 22 12 SW 1027,9 10 0,0
19.03.2019 16:00:00 10,9 1,8 12,5 13 7 - - WSW 1028,0 10 0,0
19.03.2019 15:00:00 10,9 1,0 13,2 11 6 22 12 W 1028,0 10 0,0
19.03.2019 14:00:00 10,3 0,9 11,8 8 4 22 12 WSW 1028,0 10 0,0
19.03.2019 13:00:00 9,9 0,6 12,1 8 4 22 12 WSW 1028,2 10 0,0
19.03.2019 12:00:00 8,6 2,5 9,3 9 5 18 10 W 1028,1 10 0,0
19.03.2019 11:00:00 7,1 2,8 6,9 11 6 18 10 WNW 1028,0 10 0,0

tt = Température de l'air
td = dewpoint
tt 5cm = Température de l'air 5cm
ff = Vitesse du vent
fx = gusts
dd = Direction du vent
ppp = reduced air pressure
vv = visibility
rr = Quantités de précipitations

stations d'obs. à proximité